BrentButler.com
Blog, etc. Weather Cubs Drumline
Weather Information for Des Moines, IA
Current Conditions
Fog, 41°
41°
feels like 36°
Fog
Dew Point41°
Humidity:100%
Wind:ENE 7
Visibility:0.2 miles
UV Index:Low (1)
Barometer:29.79
Sunrise:7:35 AM
Sunset:5:16 PM
Temperature Changes
24 Hour:2° 
7 Day:18° 
1 Year:4° 
Highs & Lows
Today:42° / 39°
Yesterday:47° / 30°
January 2018:47° / -18°
1 Year Ago:47° / 31°
Average:31° / 14°
Record High:58° (1992)
Record Low:-26° (1883)
Last updated at 3:54 PM
Powered by Weather Underground
Special Statement
Issued: 3:39 PM CST on January 21, 2018Expires: 6:00 PM CST on January 21, 2018
Reduced visibilities late this afternoon in drizzle and fog...

An area of drizzle and fog will continue to reduce visibilities to below one mile across portions of central Iowa late this afternoon. Some spots may see visibilities as low as one quarter mile at times.

Mjb

339 PM CST sun Jan 21 2018

... Reduced visibilities late this afternoon in drizzle and fog...

An area of drizzle and fog will continue to reduce visibilities to below one mile across portions of central Iowa late this afternoon. Some spots may see visibilities as low as one quarter mile at times.

Mjb

Tornado WarningTornado Watch
Severe Thunderstorm WarningSevere Thunderstorm Watch
Flood WarningFlood Watch / Statement
Hurricane WarningHurricane Watch
Tropical Storm WarningTropical Storm Watch
Winter Weather StatementHurricane Local Statement
High Wind AdvisoryHeat Advisory
Fire Weather AdvisoryDense Fog Advisory
Forecast
Sunday, 1/21
High:42°
Low:39°
Rain
Sunday:
Rain and thunder. Lows overnight in the upper 30s.
Sunday Night:
Showers and thundershowers early, then overcast overnight with occasional rain. Areas of patchy fog. Low 39°. Winds NE at 10 to 20 mph. Chance of rain 100%.
Monday, 1/22
High:43°
Low:25°
Chance of Rain
Monday:
Showers early becoming a steady light rain later in the day. High 43°. Winds N at 15 to 25 mph. Chance of rain 80%.
Monday Night:
Windy with on and off snow showers during the evening. Low near 25°. Winds NNW at 20 to 30 mph. Chance of snow 70%.
Tuesday, 1/23
High:34°
Low:23°
Partly Cloudy
Tuesday:
Partly cloudy. High 34°. Winds NW at 10 to 20 mph.
Tuesday Night:
Mostly cloudy skies early will become partly cloudy late. Low 23°. Winds WNW at 5 to 10 mph.
Wednesday, 1/24
43° / 29°
Clear
10%Chance of
Precipitation
Thursday, 1/25
51° / 39°
Clear
10%Chance of
Precipitation
Friday, 1/26
54° / 33°
Partly Cloudy
20%Chance of
Precipitation
Saturday, 1/27
39° / 19°
Clear
10%Chance of
Precipitation
Sunday, 1/28
26° / 13°
Partly Cloudy
10%Chance of
Precipitation
Monday, 1/29
28° / 20°
Clear
10%Chance of
Precipitation
Tuesday, 1/30
39° / 31°
Partly Cloudy
0%Chance of
Precipitation
Earlier Today
TimeConditionsDew PointHumidityWindVisibilityUV IndexBarometer
3:54 PM CST
Fog, 41°Fog, 41°
(36° wind chill)
41°100%ENE 70.2 milesLow (1)29.79
3:40 PM CST
Fog, 41°Fog, 41°
(36° wind chill)
41°100%ENE 70.2 milesLow (1)29.76
3:11 PM CST
Fog, 41°Fog, 41°
(37° wind chill)
40°95%ENE 70.0 milesLow (0)29.76
3:01 PM CST
Fog, 41°Fog, 41°
(37° wind chill)
40°95%ENE 70.0 milesLow (0)29.76
2:54 PM CST
Overcast, 41°Overcast, 41°
(36° wind chill)
40°96%ENE 80.5 milesLow (1)29.78
2:12 PM CST
Fog, 41°Fog, 41°
(36° wind chill)
40°96%ENE 80.5 milesLow (1)29.75
1:54 PM CST
Overcast, 42°Overcast, 42°
(37° wind chill)
40°92%ENE 81.0 mileLow (1)29.77
12:54 PM CST
Fog, 41°Fog, 41°
(36° wind chill)
40°96%ENE 81.0 mileLow (1)29.80
12:06 PM CST
Fog, 41°Fog, 41°
(36° wind chill)
39°93%East 71.0 mileLow (1)29.81
11:54 AM CST
Rain, 41°Rain, 41°
(36° wind chill)
39°93%ENE 71.5 milesLow (1)29.83
11:42 AM CST
Overcast, 41°Overcast, 41°
(38° wind chill)
39°93%East 51.8 milesLow (1)29.82
10:54 AM CST
Fog, 41°Fog, 41°
(35° wind chill)
39°93%ENE 102.5 milesLow (1)29.86
10:42 AM CST
Overcast, 41°Overcast, 41°
(36° wind chill)
38°89%ENE 82.0 milesLow (1)29.84
9:54 AM CST
Overcast, 41°Overcast, 41°
(36° wind chill)
38°89%East 74.0 milesLow (0)29.87
9:37 AM CST
Overcast, 41°Overcast, 41°
(36° wind chill)
38°89%ENE 84.0 milesLow (0)29.85
8:54 AM CST
Overcast, 40°Overcast, 40°
(34° wind chill)
38°93%ENE 84.0 milesLow (0)29.88
7:54 AM CST
Overcast, 40°Overcast, 40°
(34° wind chill)
38°93%ENE 85.0 milesLow (0)29.87
Sunrise: 7:35 AM
7:35 AM CST
Overcast, 40°Overcast, 40°
(34° wind chill)
38°93%ENE 85.0 milesLow (0)29.85
6:54 AM CST
Overcast, 40°Overcast, 40°
(34° wind chill)
38°93%NE 85.0 milesLow (0)29.88
5:54 AM CST
Overcast, 40°Overcast, 40°
(36° wind chill)
38°93%Variable 65.0 milesLow (0)29.88
4:54 AM CST
Overcast, 39°Overcast, 39°
(33° wind chill)
37°93%ENE 84.0 milesLow (0)29.88
3:54 AM CST
Fog, 40°Fog, 40°
(35° wind chill)
36°86%ENE 75.0 milesLow (0)29.89
3:33 AM CST
Overcast, 40°Overcast, 40°
(36° wind chill)
36°86%ENE 66.0 milesLow (0)29.88
2:54 AM CST
Overcast, 39°Overcast, 39°
(34° wind chill)
36°89%NE 76.0 milesLow (0)29.89
1:54 AM CST
Overcast, 39°Overcast, 39°
(36° wind chill)
36°89%NE 56.0 milesLow (0)29.89
12:54 AM CST
Overcast, 40°Overcast, 40°
(34° wind chill)
36°86%East 86.0 milesLow (0)29.89
Currently in Des Moines:
Fog and 41°
©2000-2018 BrentButler.com.
3:59:31 PM CST
Sunday, January 21st, 2018

Twitter

Facebook

YouTube

Instagram

Foursquare